TimePST,TemperatureF,Dew PointF,Humidity,Sea Level PressureIn,VisibilityMPH,Wind Direction,Wind SpeedMPH,Gust SpeedMPH,PrecipitationIn,Events,Conditions,WindDirDegrees,DateUTC
12:52 AM,43.0,33.1,68,29.90,10.0,West,3.5,-,N/A,,Clear,280,2012-12-08 08:52:00
1:52 AM,52.0,30.0,43,29.90,10.0,North,8.1,-,N/A,,Clear,360,2012-12-08 09:52:00
2:52 AM,44.1,33.1,65,29.90,10.0,Calm,Calm,-,N/A,,Clear,0,2012-12-08 10:52:00
3:52 AM,48.0,30.0,50,29.89,10.0,NNW,6.9,-,N/A,,Clear,340,2012-12-08 11:52:00
4:52 AM,39.9,30.0,68,29.89,10.0,Calm,Calm,-,N/A,,Clear,0,2012-12-08 12:52:00
5:52 AM,42.1,28.9,60,29.91,10.0,NNE,4.6,-,N/A,,Clear,20,2012-12-08 13:52:00
6:52 AM,39.9,28.9,65,29.91,10.0,WNW,4.6,-,N/A,,Clear,300,2012-12-08 14:52:00
7:52 AM,48.0,35.1,61,29.93,10.0,West,3.5,-,N/A,,Clear,270,2012-12-08 15:52:00
8:52 AM,59.0,35.1,41,29.94,10.0,Calm,Calm,-,N/A,,Clear,0,2012-12-08 16:52:00
9:52 AM,66.9,28.0,23,29.95,10.0,Calm,Calm,-,N/A,,Clear,0,2012-12-08 17:52:00
10:52 AM,71.1,28.0,20,29.92,10.0,Calm,Calm,-,N/A,,Clear,0,2012-12-08 18:52:00
11:52 AM,73.9,28.0,18,29.88,10.0,Calm,Calm,-,N/A,,Clear,0,2012-12-08 19:52:00
12:52 PM,77.0,26.1,15,29.86,10.0,Calm,Calm,-,N/A,,Clear,0,2012-12-08 20:52:00
1:52 PM,78.1,27.0,15,29.84,10.0,South,3.5,-,N/A,,Clear,170,2012-12-08 21:52:00
2:52 PM,77.0,25.0,15,29.83,10.0,SE,4.6,-,N/A,,Clear,130,2012-12-08 22:52:00
4:52 PM,61.0,34.0,36,29.83,10.0,SSE,3.5,-,N/A,,Clear,160,2012-12-09 00:52:00
5:52 PM,54.0,37.0,53,29.85,10.0,NNE,3.5,-,N/A,,Clear,30,2012-12-09 01:52:00
6:52 PM,51.1,37.0,59,29.86,10.0,Calm,Calm,-,N/A,,Clear,0,2012-12-09 02:52:00
7:52 PM,50.0,37.9,63,29.88,10.0,NW,3.5,-,N/A,,Clear,310,2012-12-09 03:52:00
8:52 PM,46.0,35.1,66,29.90,10.0,North,3.5,-,N/A,,Clear,360,2012-12-09 04:52:00
9:52 PM,46.0,35.1,66,29.91,10.0,Calm,Calm,-,N/A,,Clear,0,2012-12-09 05:52:00
10:52 PM,50.0,33.1,52,29.91,10.0,North,3.5,-,N/A,,Clear,350,2012-12-09 06:52:00
11:52 PM,43.0,34.0,71,29.91,10.0,Calm,Calm,-,N/A,,Clear,0,2012-12-09 07:52:00